Weather History for Bellingham, WA

Change the Weather History Date:

Thursday, December 19, 2013

  Actual Average Record
Temperature  
Mean Temperature 34 °F 38 °F  
Max Temperature 37 °F 44 °F 58 °F (1959)
Min Temperature 30 °F 32 °F 12 °F (1990)
Degree Days  
Heating Degree Days 31 27  
Month to date heating degree days 581 503  
Cooling Degree Days 0 0  
Month to date cooling degree days 0 0  
Year to date cooling degree days 95 42  
Moisture  
Dew Point 20 °F    
Average Humidity 58    
Maximum Humidity 72    
Minimum Humidity 44    
Precipitation  
Precipitation 0.00 in 0.13 in 1.07 in (1953)
Month to date precipitation 1.15 2.73  
Year to date precipitation 28.82 34.34  
Sea Level Pressure  
Sea Level Pressure 30.31 in    
Wind  
Wind Speed 5 mph (NNE)    
Max Wind Speed 17 mph    
Max Gust Speed 26 mph    
Visibility 10 miles    
Events      
T = Trace of Precipitation, MM = Missing Value Source: NWS Daily Summary

Daily Weather History Graph

Daily Weather History Graph

Search for Another Location

Airport:

Trip Planner

Search our weather history database for the weather conditions in past years. The results will help you decide how hot, cold, wet, or windy it might be!

Date:

Astronomy

Dec. 19, 2013 Rise Set
Actual Time 7:59 AM PST 4:15 PM PST
Civil Twilight 7:22 AM PST 4:52 PM PST
Nautical Twilight 6:42 AM PST 5:32 PM PST
Astronomical Twilight 6:03 AM PST 6:11 PM PST
Moon 6:57 PM PST (12/19) 9:11 AM PST (12/19)
Length of Visible Light 9h 30m
Length of Day
8h 15m
Waning Gibbous, 95% of the Moon is Illuminated
Dec 19
Waning Gibbous
Dec 25
Last Quarter
Jan 1
New
Jan 7
First Quarter
Jan 15
Full

Hourly Weather History & Observations

Time (PST) Temp. Windchill Dew Point Humidity Pressure Visibility Wind Dir Wind Speed Gust Speed Precip Events Conditions
12:53 AM 35.1 °F 26.9 °F 16.0 °F 46% 30.30 in 10.0 mi NNE 11.5 mph - N/A   Clear
1:53 AM 33.1 °F 25.5 °F 16.0 °F 50% 30.30 in 10.0 mi NNE 9.2 mph - N/A   Clear
2:53 AM 32.0 °F 25.6 °F 16.0 °F 52% 30.34 in 10.0 mi North 6.9 mph - N/A   Clear
3:53 AM 30.9 °F 22.8 °F 18.0 °F 59% 30.34 in 10.0 mi North 9.2 mph - N/A   Clear
4:53 AM 30.9 °F 23.5 °F 18.0 °F 59% 30.35 in 10.0 mi North 8.1 mph - N/A   Clear
5:53 AM 32.0 °F 24.2 °F 18.0 °F 56% 30.33 in 10.0 mi North 9.2 mph - N/A   Clear
6:53 AM 33.1 °F 24.4 °F 16.0 °F 50% 30.35 in 10.0 mi NNE 11.5 mph - N/A   Clear
7:53 AM 30.0 °F 22.4 °F 17.1 °F 59% 30.34 in 10.0 mi NNE 8.1 mph - N/A   Clear
8:53 AM 32.0 °F 26.4 °F 16.0 °F 52% 30.35 in 10.0 mi NNE 5.8 mph - N/A   Clear
9:53 AM 33.1 °F 24.9 °F 17.1 °F 52% 30.38 in 10.0 mi North 10.4 mph - N/A   Clear
10:53 AM 34.0 °F 31.0 °F 18.0 °F 52% 30.38 in 10.0 mi NNE 3.5 mph - N/A   Clear
11:53 AM 36.0 °F 33.3 °F 17.1 °F 46% 30.33 in 10.0 mi NE 3.5 mph - N/A   Clear
12:53 PM 36.0 °F - 18.0 °F 48% 30.33 in 10.0 mi Calm Calm - N/A   Clear
1:53 PM 36.0 °F 33.3 °F 23.0 °F 59% 30.32 in 10.0 mi SE 3.5 mph - N/A   Scattered Clouds
2:53 PM 36.0 °F - 21.9 °F 57% 30.31 in 10.0 mi Calm Calm - N/A   Overcast
3:53 PM 34.0 °F - 24.1 °F 67% 30.30 in 10.0 mi Calm Calm - N/A   Mostly Cloudy
4:53 PM 34.0 °F - 24.1 °F 67% 30.32 in 10.0 mi Calm Calm - N/A   Overcast
5:53 PM 32.0 °F - 25.0 °F 75% 30.30 in 10.0 mi Calm Calm - N/A   Overcast
6:53 PM 33.1 °F - 24.1 °F 70% 30.28 in 10.0 mi Calm Calm - N/A   Overcast
7:53 PM 32.0 °F - 25.0 °F 75% 30.27 in 10.0 mi Calm Calm - N/A   Overcast
8:53 PM 33.1 °F - 25.0 °F 72% 30.26 in 10.0 mi Calm Calm - N/A   Overcast
9:53 PM 34.0 °F - 24.1 °F 67% 30.25 in 10.0 mi Calm Calm - N/A   Overcast
10:53 PM 34.0 °F 28.8 °F 25.0 °F 70% 30.25 in 10.0 mi ESE 5.8 mph - N/A   Overcast
11:53 PM 34.0 °F 28.8 °F 25.0 °F 70% 30.23 in 10.0 mi SSE 5.8 mph - N/A   Overcast